Weather History for Shaw AFB, SC

Change the Weather History Date:

Saturday, May 5, 2012

  Actual Average Record
Temperature  
Mean Temperature 80 °F -  
Max Temperature 92 °F 77 °F 93 °F (2014)
Min Temperature 68 °F 55 °F 45 °F (2011)
Cooling Degree Days 15    
Growing Degree Days 30 (Base 50)    
Moisture  
Dew Point 64 °F    
Average Humidity 63    
Maximum Humidity 87    
Minimum Humidity 35    
Precipitation  
Precipitation 0.34 in - - ()
Sea Level Pressure  
Sea Level Pressure 29.86 in    
Wind  
Wind Speed 8 mph (WSW)    
Max Wind Speed 23 mph    
Max Gust Speed 46 mph    
Visibility 10 miles    
Events Rain , Thunderstorm    
Averages and records for this station are not official NWS values.
T = Trace of Precipitation, MM = Missing Value Source: NWS Daily Summary

Daily Weather History Graph

Daily Weather History Graph

Search for Another Location

Airport:

Trip Planner

Search our weather history database for the weather conditions in past years. The results will help you decide how hot, cold, wet, or windy it might be!

Date:

Astronomy

May. 05, 2012 Rise Set
Actual Time 6:28 AM EDT 8:09 PM EDT
Civil Twilight 6:01 AM EDT 8:36 PM EDT
Nautical Twilight 5:29 AM EDT 9:08 PM EDT
Astronomical Twilight 4:54 AM EDT 9:43 PM EDT
Moon 7:58 PM EDT (5/5) 5:49 AM EDT (5/5)
Length of Visible Light 14h 34m
Length of Day
13h 40m
Full, 100% of the Moon is Illuminated
May 5
Full
May 5
Full
May 12
Last Quarter
May 20
New
May 28
First Quarter

Hourly Weather History & Observations

Time (EDT) Temp. Heat Index Dew Point Humidity Pressure Visibility Wind Dir Wind Speed Gust Speed Precip Events Conditions
12:55 AM 70.0 °F - 59.7 °F 70% 29.95 in 10.0 mi SSW 5.8 mph - N/A   Clear
1:55 AM 69.8 °F - 60.8 °F 73% 29.94 in 10.0 mi SSW 5.8 mph - N/A   Clear
2:55 AM 69.4 °F - 64.6 °F 84% 29.92 in 10.0 mi SSW 5.8 mph - N/A   Clear
3:55 AM 69.1 °F - 64.4 °F 85% 29.92 in 10.0 mi SSW 6.9 mph - N/A   Clear
4:55 AM 69.4 °F - 63.9 °F 82% 29.92 in 10.0 mi WSW 5.8 mph - N/A   Clear
5:55 AM 69.1 °F - 64.0 °F 84% 29.91 in 10.0 mi SW 8.1 mph - N/A   Clear
6:55 AM 68.5 °F - 64.6 °F 87% 29.92 in 10.0 mi SSW 4.6 mph - N/A   Clear
7:55 AM 71.4 °F - 65.7 °F 82% 29.93 in 10.0 mi WSW 12.7 mph - N/A   Clear
8:55 AM 75.2 °F - 66.2 °F 73% 29.94 in 10.0 mi WSW 8.1 mph - N/A   Clear
9:55 AM 79.2 °F - 66.6 °F 65% 29.94 in 10.0 mi WSW 9.2 mph - N/A   Clear
10:55 AM 83.3 °F 85.7 °F 66.7 °F 57% 29.94 in 10.0 mi WSW 11.5 mph - N/A   Clear
11:55 AM 87.1 °F 89.5 °F 66.4 °F 50% 29.93 in 10.0 mi WNW 12.7 mph - N/A   Scattered Clouds
12:55 PM 88.5 °F 88.3 °F 61.0 °F 39% 29.90 in 10.0 mi West 13.8 mph 18.4 mph N/A   Mostly Cloudy
1:55 PM 89.2 °F 89.3 °F 61.0 °F 39% 29.87 in 10.0 mi WSW 15.0 mph - N/A   Mostly Cloudy
2:55 PM 91.4 °F 91.4 °F 61.3 °F 36% 29.85 in 10.0 mi SW 16.1 mph - N/A   Mostly Cloudy
3:55 PM 91.2 °F 90.8 °F 60.1 °F 35% 29.81 in 10.0 mi Variable 5.8 mph - N/A   Partly Cloudy
4:55 PM 92.3 °F 92.3 °F 61.2 °F 35% 29.80 in 10.0 mi WSW 9.2 mph - N/A   Clear
5:55 PM 90.5 °F 90.7 °F 61.7 °F 38% 29.79 in 10.0 mi Variable 4.6 mph - N/A   Clear
6:31 PM 89.6 °F 90.1 °F 62.6 °F 40% 29.78 in 10.0 mi WSW 4.6 mph - N/A   Light Drizzle
6:40 PM 87.8 °F 89.4 °F 64.4 °F 46% 29.78 in 10.0 mi NNW 3.5 mph - N/A Thunderstorm Scattered Clouds
6:42 PM 87.8 °F 88.5 °F 62.6 °F 43% 29.78 in 10.0 mi NW 5.8 mph - N/A Thunderstorm Thunderstorm
6:48 PM 86.0 °F 89.4 °F 68.0 °F 55% 29.81 in 10.0 mi West 13.8 mph 25.3 mph N/A Rain , Thunderstorm Heavy Thunderstorms and Rain
6:55 PM 76.3 °F - 67.6 °F 74% 29.81 in 3.0 mi SSW 23.0 mph 46.0 mph 0.30 in Rain , Thunderstorm Thunderstorms and Rain
7:02 PM 73.4 °F - 68.0 °F 83% 29.80 in 5.0 mi SE 11.5 mph 29.9 mph N/A Rain , Thunderstorm Light Thunderstorms and Rain
7:16 PM 75.2 °F - 68.0 °F 78% 29.79 in 10.0 mi Variable 3.5 mph - N/A Thunderstorm Thunderstorm
7:25 PM 75.2 °F - 69.8 °F 83% 29.79 in 10.0 mi East 3.5 mph - N/A Thunderstorm Scattered Clouds
7:55 PM 74.8 °F - 69.3 °F 83% 29.80 in 10.0 mi SSW 8.1 mph - 0.04 in   Mostly Cloudy
8:55 PM 75.4 °F - 68.2 °F 78% 29.81 in 10.0 mi SSW 3.5 mph - N/A   Partly Cloudy
9:55 PM 76.3 °F - 63.9 °F 65% 29.81 in 10.0 mi NNW 8.1 mph - N/A   Clear
10:55 PM 78.3 °F - 61.2 °F 56% 29.83 in 10.0 mi NNW 6.9 mph - N/A   Scattered Clouds
11:52 PM 75.2 °F - 62.6 °F 65% 29.87 in 10.0 mi NNW 9.2 mph - N/A Rain Light Rain
11:55 PM 75.4 °F - 62.8 °F 65% 29.87 in 10.0 mi NNW 8.1 mph - 0.00 in Rain Light Rain